Location: Ay?beleni
(36.6500°N, 30.3000°E)
Time: 09:17:49
(UTC+00:00)

SJ-6B - Pass Details

Date: 09 April 2020
Orbit: 509 x 582 km, 97.6° (Epoch: 01 June)

Event Time Altitude Azimuth Distance (km) Brightness Sun altitude
Exits shadow 17:04:28 - 128° (SE) 2,045 5.1 -7.9°
Reaches altitude 10° 17:04:56 10° 125° (SE) 1,890 4.9 -8.0°
Maximum altitude 17:08:16 24° 70° (ENE) 1,208 4.1 -8.6°
Drops below altitude 10° 17:11:37 10° 16° (NNE) 1,906 5.6 -9.3°
Sets 17:14:04 0° 3° (N) 2,808 6.6 -9.7°
